This is the latest recevied weather packets stored in our database for station/object IZ1UQG-N2. If no packets are shown the sender has not sent any weather packets the latest 10 day(s).
| Time | Temp. | Humidity | Pressure | Rain* | Wind** | Luminosity | Snow |
|---|---|---|---|---|---|---|---|
| 1787899504 | 22.78° C | 90% | 1014.4 hPa | 0 mm | - | 32 W/m² | - |
| 1787899443 | 22.78° C | 90% | 1014.6 hPa | 0 mm | - | 30 W/m² | - |
| 1787899383 | 22.78° C | 90% | 1014.5 hPa | 0 mm | - | 28 W/m² | - |
| 1787899323 | 22.78° C | 90% | 1014.5 hPa | 0 mm | - | 26 W/m² | - |
| 1787899263 | 22.78° C | 90% | 1014.5 hPa | 0 mm | - | 21 W/m² | - |
| 1787899202 | 22.78° C | 90% | 1014.5 hPa | 0 mm | - | 19 W/m² | - |
| 1787899143 | 22.78° C | 91% | 1014.4 hPa | 0 mm | - | 14 W/m² | - |
| 1787899082 | 22.78° C | 91% | 1014.4 hPa | 0 mm | - | 14 W/m² | - |
| 1787899022 | 22.78° C | 91% | 1014.5 hPa | 0 mm | - | 14 W/m² | - |
| 1787898962 | 22.78° C | 91% | 1014.5 hPa | 0 mm | - | 16 W/m² | - |
| 1787898904 | 22.78° C | 91% | 1014.4 hPa | 0 mm | - | 16 W/m² | - |
| 1787898842 | 22.78° C | 91% | 1014.4 hPa | 0 mm | - | 16 W/m² | - |
| 1787898782 | 22.78° C | 91% | 1014.5 hPa | 0 mm | - | 16 W/m² | - |
| 1787898722 | 22.78° C | 91% | 1014.6 hPa | 0 mm | - | 16 W/m² | - |
| 1787898662 | 22.22° C | 91% | 1014.6 hPa | 0 mm | - | 16 W/m² | - |
| 1787898604 | 22.22° C | 91% | 1014.7 hPa | 0 mm | - | 18 W/m² | - |
| 1787898544 | 22.22° C | 91% | 1014.8 hPa | 0 mm | - | 19 W/m² | - |
| 1787898483 | 22.22° C | 91% | 1014.7 hPa | 0 mm | - | 23 W/m² | - |
| 1787898423 | 22.22° C | 91% | 1014.7 hPa | 0 mm | - | 23 W/m² | - |
| 1787898363 | 22.22° C | 91% | 1014.7 hPa | 0 mm | - | 19 W/m² | - |
| 1787898302 | 22.22° C | 91% | 1014.7 hPa | 0 mm | - | 16 W/m² | - |
| 1787898244 | 22.22° C | 91% | 1014.7 hPa | 0 mm | - | 14 W/m² | - |
| 1787898182 | 22.22° C | 91% | 1014.8 hPa | 0 mm | - | 12 W/m² | - |
| 1787898122 | 22.22° C | 91% | 1014.9 hPa | 0 mm | - | 11 W/m² | - |
| 1787898064 | 22.78° C | 91% | 1015 hPa | 0 mm | - | 11 W/m² | - |
* Rain latest hour (hover to see other rain measurements)
** Current wind speed in m/s (hover to see current wind gust speed)